Index of /20260413/WXO-DD/model_gdps/15km/12/117
Name Last modified Size Description
Parent Directory -
20260413T12Z_MSC_GDPS_AbsoluteVorticity_IsbL-0200_LatLon0.15_PT117H.grib2 2026-04-13 16:47 1.2M
20260413T12Z_MSC_GDPS_AbsoluteVorticity_IsbL-0250_LatLon0.15_PT117H.grib2 2026-04-13 16:47 1.3M
20260413T12Z_MSC_GDPS_AbsoluteVorticity_IsbL-0500_LatLon0.15_PT117H.grib2 2026-04-13 16:47 1.4M
20260413T12Z_MSC_GDPS_AbsoluteVorticity_IsbL-0700_LatLon0.15_PT117H.grib2 2026-04-13 16:47 1.6M
20260413T12Z_MSC_GDPS_AbsoluteVorticity_IsbL-0850_LatLon0.15_PT117H.grib2 2026-04-13 16:47 1.6M
20260413T12Z_MSC_GDPS_AirTemp_AGL-120m_LatLon0.15_PT117H.grib2 2026-04-13 16:47 911K
20260413T12Z_MSC_GDPS_AirTemp_AGL-2m_LatLon0.15_PT117H.grib2 2026-04-13 16:47 1.0M
20260413T12Z_MSC_GDPS_AirTemp_AGL-40m_LatLon0.15_PT117H.grib2 2026-04-13 16:47 810K
20260413T12Z_MSC_GDPS_AirTemp_AGL-80m_LatLon0.15_PT117H.grib2 2026-04-13 16:47 918K
20260413T12Z_MSC_GDPS_AirTemp_IsbL-0001_LatLon0.15_PT117H.grib2 2026-04-13 16:47 641K
20260413T12Z_MSC_GDPS_AirTemp_IsbL-0005_LatLon0.15_PT117H.grib2 2026-04-13 16:47 678K
20260413T12Z_MSC_GDPS_AirTemp_IsbL-0010_LatLon0.15_PT117H.grib2 2026-04-13 16:47 746K
20260413T12Z_MSC_GDPS_AirTemp_IsbL-0020_LatLon0.15_PT117H.grib2 2026-04-13 16:47 690K
20260413T12Z_MSC_GDPS_AirTemp_IsbL-0030_LatLon0.15_PT117H.grib2 2026-04-13 16:47 743K
20260413T12Z_MSC_GDPS_AirTemp_IsbL-0050_LatLon0.15_PT117H.grib2 2026-04-13 16:47 809K
20260413T12Z_MSC_GDPS_AirTemp_IsbL-0100_LatLon0.15_PT117H.grib2 2026-04-13 16:47 950K
20260413T12Z_MSC_GDPS_AirTemp_IsbL-0150_LatLon0.15_PT117H.grib2 2026-04-13 16:47 960K
20260413T12Z_MSC_GDPS_AirTemp_IsbL-0175_LatLon0.15_PT117H.grib2 2026-04-13 16:47 953K
20260413T12Z_MSC_GDPS_AirTemp_IsbL-0200_LatLon0.15_PT117H.grib2 2026-04-13 16:47 964K
20260413T12Z_MSC_GDPS_AirTemp_IsbL-0225_LatLon0.15_PT117H.grib2 2026-04-13 16:47 968K
20260413T12Z_MSC_GDPS_AirTemp_IsbL-0250_LatLon0.15_PT117H.grib2 2026-04-13 16:47 1.0M
20260413T12Z_MSC_GDPS_AirTemp_IsbL-0275_LatLon0.15_PT117H.grib2 2026-04-13 16:47 1.0M
20260413T12Z_MSC_GDPS_AirTemp_IsbL-0300_LatLon0.15_PT117H.grib2 2026-04-13 16:47 1.0M
20260413T12Z_MSC_GDPS_AirTemp_IsbL-0350_LatLon0.15_PT117H.grib2 2026-04-13 16:47 921K
20260413T12Z_MSC_GDPS_AirTemp_IsbL-0400_LatLon0.15_PT117H.grib2 2026-04-13 16:47 931K
20260413T12Z_MSC_GDPS_AirTemp_IsbL-0450_LatLon0.15_PT117H.grib2 2026-04-13 16:47 955K
20260413T12Z_MSC_GDPS_AirTemp_IsbL-0500_LatLon0.15_PT117H.grib2 2026-04-13 16:47 1.0M
20260413T12Z_MSC_GDPS_AirTemp_IsbL-0550_LatLon0.15_PT117H.grib2 2026-04-13 16:47 1.0M
20260413T12Z_MSC_GDPS_AirTemp_IsbL-0600_LatLon0.15_PT117H.grib2 2026-04-13 16:47 883K
20260413T12Z_MSC_GDPS_AirTemp_IsbL-0650_LatLon0.15_PT117H.grib2 2026-04-13 16:47 916K
20260413T12Z_MSC_GDPS_AirTemp_IsbL-0700_LatLon0.15_PT117H.grib2 2026-04-13 16:47 955K
20260413T12Z_MSC_GDPS_AirTemp_IsbL-0750_LatLon0.15_PT117H.grib2 2026-04-13 16:47 1.0M
20260413T12Z_MSC_GDPS_AirTemp_IsbL-0800_LatLon0.15_PT117H.grib2 2026-04-13 16:47 1.1M
20260413T12Z_MSC_GDPS_AirTemp_IsbL-0850_LatLon0.15_PT117H.grib2 2026-04-13 16:47 1.1M
20260413T12Z_MSC_GDPS_AirTemp_IsbL-0875_LatLon0.15_PT117H.grib2 2026-04-13 16:47 1.2M
20260413T12Z_MSC_GDPS_AirTemp_IsbL-0900_LatLon0.15_PT117H.grib2 2026-04-13 16:47 1.2M
20260413T12Z_MSC_GDPS_AirTemp_IsbL-0925_LatLon0.15_PT117H.grib2 2026-04-13 16:47 1.1M
20260413T12Z_MSC_GDPS_AirTemp_IsbL-0950_LatLon0.15_PT117H.grib2 2026-04-13 16:47 1.1M
20260413T12Z_MSC_GDPS_AirTemp_IsbL-0970_LatLon0.15_PT117H.grib2 2026-04-13 16:47 1.2M
20260413T12Z_MSC_GDPS_AirTemp_IsbL-0985_LatLon0.15_PT117H.grib2 2026-04-13 16:47 1.1M
20260413T12Z_MSC_GDPS_AirTemp_IsbL-1000_LatLon0.15_PT117H.grib2 2026-04-13 16:47 1.1M
20260413T12Z_MSC_GDPS_AirTemp_IsbL-1015_LatLon0.15_PT117H.grib2 2026-04-13 16:47 1.1M
20260413T12Z_MSC_GDPS_Albedo_Sfc_LatLon0.15_PT117H.grib2 2026-04-13 16:47 245K
20260413T12Z_MSC_GDPS_CAPE_Sfc_LatLon0.15_PT117H.grib2 2026-04-13 16:47 4.1M
20260413T12Z_MSC_GDPS_CIN_Sfc_LatLon0.15_PT117H.grib2 2026-04-13 16:47 3.0M
20260413T12Z_MSC_GDPS_CloudWater_EAtm_LatLon0.15_PT117H.grib2 2026-04-13 16:47 531K
20260413T12Z_MSC_GDPS_ConvectivePrecip-Accum_Sfc_LatLon0.15_PT117H.grib2 2026-04-13 16:47 3.1M
20260413T12Z_MSC_GDPS_DewPointDepression_AGL-2m_LatLon0.15_PT117H.grib2 2026-04-13 16:47 591K
20260413T12Z_MSC_GDPS_DewPointDepression_IsbL-0010_LatLon0.15_PT117H.grib2 2026-04-13 16:47 2.9K
20260413T12Z_MSC_GDPS_DewPointDepression_IsbL-0020_LatLon0.15_PT117H.grib2 2026-04-13 16:47 55K
20260413T12Z_MSC_GDPS_DewPointDepression_IsbL-0030_LatLon0.15_PT117H.grib2 2026-04-13 16:47 69K
20260413T12Z_MSC_GDPS_DewPointDepression_IsbL-0050_LatLon0.15_PT117H.grib2 2026-04-13 16:47 354K
20260413T12Z_MSC_GDPS_DewPointDepression_IsbL-0100_LatLon0.15_PT117H.grib2 2026-04-13 16:47 371K
20260413T12Z_MSC_GDPS_DewPointDepression_IsbL-0150_LatLon0.15_PT117H.grib2 2026-04-13 16:47 456K
20260413T12Z_MSC_GDPS_DewPointDepression_IsbL-0175_LatLon0.15_PT117H.grib2 2026-04-13 16:47 534K
20260413T12Z_MSC_GDPS_DewPointDepression_IsbL-0200_LatLon0.15_PT117H.grib2 2026-04-13 16:47 623K
20260413T12Z_MSC_GDPS_DewPointDepression_IsbL-0225_LatLon0.15_PT117H.grib2 2026-04-13 16:47 760K
20260413T12Z_MSC_GDPS_DewPointDepression_IsbL-0250_LatLon0.15_PT117H.grib2 2026-04-13 16:47 877K
20260413T12Z_MSC_GDPS_DewPointDepression_IsbL-0275_LatLon0.15_PT117H.grib2 2026-04-13 16:47 897K
20260413T12Z_MSC_GDPS_DewPointDepression_IsbL-0300_LatLon0.15_PT117H.grib2 2026-04-13 16:47 926K
20260413T12Z_MSC_GDPS_DewPointDepression_IsbL-0350_LatLon0.15_PT117H.grib2 2026-04-13 16:47 952K
20260413T12Z_MSC_GDPS_DewPointDepression_IsbL-0400_LatLon0.15_PT117H.grib2 2026-04-13 16:47 1.0M
20260413T12Z_MSC_GDPS_DewPointDepression_IsbL-0450_LatLon0.15_PT117H.grib2 2026-04-13 16:47 1.0M
20260413T12Z_MSC_GDPS_DewPointDepression_IsbL-0500_LatLon0.15_PT117H.grib2 2026-04-13 16:47 1.0M
20260413T12Z_MSC_GDPS_DewPointDepression_IsbL-0550_LatLon0.15_PT117H.grib2 2026-04-13 16:47 1.0M
20260413T12Z_MSC_GDPS_DewPointDepression_IsbL-0600_LatLon0.15_PT117H.grib2 2026-04-13 16:47 1.1M
20260413T12Z_MSC_GDPS_DewPointDepression_IsbL-0650_LatLon0.15_PT117H.grib2 2026-04-13 16:47 1.1M
20260413T12Z_MSC_GDPS_DewPointDepression_IsbL-0700_LatLon0.15_PT117H.grib2 2026-04-13 16:47 1.1M
20260413T12Z_MSC_GDPS_DewPointDepression_IsbL-0750_LatLon0.15_PT117H.grib2 2026-04-13 16:47 1.1M
20260413T12Z_MSC_GDPS_DewPointDepression_IsbL-0800_LatLon0.15_PT117H.grib2 2026-04-13 16:47 1.2M
20260413T12Z_MSC_GDPS_DewPointDepression_IsbL-0850_LatLon0.15_PT117H.grib2 2026-04-13 16:47 1.2M
20260413T12Z_MSC_GDPS_DewPointDepression_IsbL-0875_LatLon0.15_PT117H.grib2 2026-04-13 16:47 1.1M
20260413T12Z_MSC_GDPS_DewPointDepression_IsbL-0900_LatLon0.15_PT117H.grib2 2026-04-13 16:47 1.1M
20260413T12Z_MSC_GDPS_DewPointDepression_IsbL-0925_LatLon0.15_PT117H.grib2 2026-04-13 16:47 1.0M
20260413T12Z_MSC_GDPS_DewPointDepression_IsbL-0950_LatLon0.15_PT117H.grib2 2026-04-13 16:47 1.0M
20260413T12Z_MSC_GDPS_DewPointDepression_IsbL-0970_LatLon0.15_PT117H.grib2 2026-04-13 16:47 1.0M
20260413T12Z_MSC_GDPS_DewPointDepression_IsbL-0985_LatLon0.15_PT117H.grib2 2026-04-13 16:47 1.0M
20260413T12Z_MSC_GDPS_DewPointDepression_IsbL-1000_LatLon0.15_PT117H.grib2 2026-04-13 16:47 970K
20260413T12Z_MSC_GDPS_DewPointDepression_IsbL-1015_LatLon0.15_PT117H.grib2 2026-04-13 16:47 912K
20260413T12Z_MSC_GDPS_DewPoint_AGL-2m_LatLon0.15_PT117H.grib2 2026-04-13 16:47 617K
20260413T12Z_MSC_GDPS_DownwardLongwaveRadiationFlux-Accum_Sfc_LatLon0.15_PT117H.grib2 2026-04-13 16:47 798K
20260413T12Z_MSC_GDPS_DownwardShortwaveRadiationFlux-Accum_NTAtm_LatLon0.15_PT117H.grib2 2026-04-13 16:47 287K
20260413T12Z_MSC_GDPS_DownwardShortwaveRadiationFlux-Accum_Sfc_LatLon0.15_PT117H.grib2 2026-04-13 16:47 1.0M
20260413T12Z_MSC_GDPS_FreezingRain-Accum1h_Sfc_LatLon0.15_PT117H.grib2 2026-04-13 16:47 30K
20260413T12Z_MSC_GDPS_FreezingRain-Accum3h_Sfc_LatLon0.15_PT117H.grib2 2026-04-13 16:47 37K
20260413T12Z_MSC_GDPS_FreezingRain-Accum_Sfc_LatLon0.15_PT117H.grib2 2026-04-13 16:47 259K
20260413T12Z_MSC_GDPS_GeopotentialHeight_IsbL-0001_LatLon0.15_PT117H.grib2 2026-04-13 16:47 393K
20260413T12Z_MSC_GDPS_GeopotentialHeight_IsbL-0005_LatLon0.15_PT117H.grib2 2026-04-13 16:47 501K
20260413T12Z_MSC_GDPS_GeopotentialHeight_IsbL-0010_LatLon0.15_PT117H.grib2 2026-04-13 16:47 433K
20260413T12Z_MSC_GDPS_GeopotentialHeight_IsbL-0020_LatLon0.15_PT117H.grib2 2026-04-13 16:47 573K
20260413T12Z_MSC_GDPS_GeopotentialHeight_IsbL-0030_LatLon0.15_PT117H.grib2 2026-04-13 16:47 577K
20260413T12Z_MSC_GDPS_GeopotentialHeight_IsbL-0050_LatLon0.15_PT117H.grib2 2026-04-13 16:47 578K
20260413T12Z_MSC_GDPS_GeopotentialHeight_IsbL-0100_LatLon0.15_PT117H.grib2 2026-04-13 16:47 617K
20260413T12Z_MSC_GDPS_GeopotentialHeight_IsbL-0150_LatLon0.15_PT117H.grib2 2026-04-13 16:47 632K
20260413T12Z_MSC_GDPS_GeopotentialHeight_IsbL-0175_LatLon0.15_PT117H.grib2 2026-04-13 16:47 634K
20260413T12Z_MSC_GDPS_GeopotentialHeight_IsbL-0200_LatLon0.15_PT117H.grib2 2026-04-13 16:47 637K
20260413T12Z_MSC_GDPS_GeopotentialHeight_IsbL-0225_LatLon0.15_PT117H.grib2 2026-04-13 16:47 634K
20260413T12Z_MSC_GDPS_GeopotentialHeight_IsbL-0250_LatLon0.15_PT117H.grib2 2026-04-13 16:47 644K
20260413T12Z_MSC_GDPS_GeopotentialHeight_IsbL-0275_LatLon0.15_PT117H.grib2 2026-04-13 16:47 640K
20260413T12Z_MSC_GDPS_GeopotentialHeight_IsbL-0300_LatLon0.15_PT117H.grib2 2026-04-13 16:47 632K
20260413T12Z_MSC_GDPS_GeopotentialHeight_IsbL-0350_LatLon0.15_PT117H.grib2 2026-04-13 16:47 627K
20260413T12Z_MSC_GDPS_GeopotentialHeight_IsbL-0400_LatLon0.15_PT117H.grib2 2026-04-13 16:47 619K
20260413T12Z_MSC_GDPS_GeopotentialHeight_IsbL-0450_LatLon0.15_PT117H.grib2 2026-04-13 16:47 539K
20260413T12Z_MSC_GDPS_GeopotentialHeight_IsbL-0500_LatLon0.15_PT117H.grib2 2026-04-13 16:47 528K
20260413T12Z_MSC_GDPS_GeopotentialHeight_IsbL-0550_LatLon0.15_PT117H.grib2 2026-04-13 16:47 690K
20260413T12Z_MSC_GDPS_GeopotentialHeight_IsbL-0600_LatLon0.15_PT117H.grib2 2026-04-13 16:47 682K
20260413T12Z_MSC_GDPS_GeopotentialHeight_IsbL-0650_LatLon0.15_PT117H.grib2 2026-04-13 16:47 683K
20260413T12Z_MSC_GDPS_GeopotentialHeight_IsbL-0700_LatLon0.15_PT117H.grib2 2026-04-13 16:47 685K
20260413T12Z_MSC_GDPS_GeopotentialHeight_IsbL-0750_LatLon0.15_PT117H.grib2 2026-04-13 16:47 623K
20260413T12Z_MSC_GDPS_GeopotentialHeight_IsbL-0800_LatLon0.15_PT117H.grib2 2026-04-13 16:47 635K
20260413T12Z_MSC_GDPS_GeopotentialHeight_IsbL-0850_LatLon0.15_PT117H.grib2 2026-04-13 16:47 645K
20260413T12Z_MSC_GDPS_GeopotentialHeight_IsbL-0875_LatLon0.15_PT117H.grib2 2026-04-13 16:47 652K
20260413T12Z_MSC_GDPS_GeopotentialHeight_IsbL-0900_LatLon0.15_PT117H.grib2 2026-04-13 16:47 724K
20260413T12Z_MSC_GDPS_GeopotentialHeight_IsbL-0925_LatLon0.15_PT117H.grib2 2026-04-13 16:47 732K
20260413T12Z_MSC_GDPS_GeopotentialHeight_IsbL-0950_LatLon0.15_PT117H.grib2 2026-04-13 16:47 737K
20260413T12Z_MSC_GDPS_GeopotentialHeight_IsbL-0970_LatLon0.15_PT117H.grib2 2026-04-13 16:47 749K
20260413T12Z_MSC_GDPS_GeopotentialHeight_IsbL-0985_LatLon0.15_PT117H.grib2 2026-04-13 16:47 764K
20260413T12Z_MSC_GDPS_GeopotentialHeight_IsbL-1000_LatLon0.15_PT117H.grib2 2026-04-13 16:47 785K
20260413T12Z_MSC_GDPS_GeopotentialHeight_IsbL-1015_LatLon0.15_PT117H.grib2 2026-04-13 16:47 808K
20260413T12Z_MSC_GDPS_Humidex_Sfc_LatLon0.15_PT117H.grib2 2026-04-13 16:47 5.3M
20260413T12Z_MSC_GDPS_IcePellets-Accum1h_Sfc_LatLon0.15_PT117H.grib2 2026-04-13 16:47 17K
20260413T12Z_MSC_GDPS_IcePellets-Accum3h_Sfc_LatLon0.15_PT117H.grib2 2026-04-13 16:47 19K
20260413T12Z_MSC_GDPS_IcePellets-Accum_Sfc_LatLon0.15_PT117H.grib2 2026-04-13 16:47 129K
20260413T12Z_MSC_GDPS_KIndex_Sfc_LatLon0.15_PT117H.grib2 2026-04-13 16:47 6.5M
20260413T12Z_MSC_GDPS_LatentHeatNetFlux_Sfc_LatLon0.15_PT117H.grib2 2026-04-13 16:47 540K
20260413T12Z_MSC_GDPS_LiftedIndex-MU-VT_IsbL-0500_LatLon0.15_PT117H.grib2 2026-04-13 16:47 5.4M
20260413T12Z_MSC_GDPS_NetLongwaveRadiationFlux-Accum_Sfc_LatLon0.15_PT117H.grib2 2026-04-13 16:47 1.0M
20260413T12Z_MSC_GDPS_NetShortwaveRadiationFlux-Accum_Sfc_LatLon0.15_PT117H.grib2 2026-04-13 16:47 1.0M
20260413T12Z_MSC_GDPS_O3MixingRatio_LatLon0.15_PT117H.grib2 2026-04-13 17:07 1.9M
20260413T12Z_MSC_GDPS_O3_EAtm_LatLon0.15_PT117H.grib2 2026-04-13 17:07 2.1M
20260413T12Z_MSC_GDPS_PlanetaryBoundaryLayerHeight_Sfc_LatLon0.15_PT117H.grib2 2026-04-13 16:47 2.5M
20260413T12Z_MSC_GDPS_Precip-Accum1h_Sfc_LatLon0.15_PT117H.grib2 2026-04-13 16:47 3.2M
20260413T12Z_MSC_GDPS_Precip-Accum3h_Sfc_LatLon0.15_PT117H.grib2 2026-04-13 16:47 3.5M
20260413T12Z_MSC_GDPS_Precip-Accum_Sfc_LatLon0.15_PT117H.grib2 2026-04-13 16:47 5.0M
20260413T12Z_MSC_GDPS_PrecipRate_Sfc_LatLon0.15_PT117H.grib2 2026-04-13 16:47 3.0M
20260413T12Z_MSC_GDPS_PrecipType-Instant_Sfc_LatLon0.15_PT117H.grib2 2026-04-13 16:47 1.5M
20260413T12Z_MSC_GDPS_Pressure_MSL_LatLon0.15_PT117H.grib2 2026-04-13 16:47 722K
20260413T12Z_MSC_GDPS_Pressure_PVU-1.5_LatLon0.15_PT117H.grib2 2026-04-13 16:47 5.8M
20260413T12Z_MSC_GDPS_Pressure_PVU-1_LatLon0.15_PT117H.grib2 2026-04-13 16:47 6.0M
20260413T12Z_MSC_GDPS_Pressure_PVU-2_LatLon0.15_PT117H.grib2 2026-04-13 16:47 5.6M
20260413T12Z_MSC_GDPS_Pressure_Sfc_LatLon0.15_PT117H.grib2 2026-04-13 16:47 1.1M
20260413T12Z_MSC_GDPS_RadiativeTemp_Sfc_LatLon0.15_PT117H.grib2 2026-04-13 16:47 684K
20260413T12Z_MSC_GDPS_Rain-Accum1h_Sfc_LatLon0.15_PT117H.grib2 2026-04-13 16:47 1.6M
20260413T12Z_MSC_GDPS_Rain-Accum3h_Sfc_LatLon0.15_PT117H.grib2 2026-04-13 16:47 1.6M
20260413T12Z_MSC_GDPS_Rain-Accum_Sfc_LatLon0.15_PT117H.grib2 2026-04-13 16:47 3.8M
20260413T12Z_MSC_GDPS_RelativeHumidity_AGL-2m_LatLon0.15_PT117H.grib2 2026-04-13 16:47 1.0M
20260413T12Z_MSC_GDPS_RelativeHumidity_IsbL-0010_LatLon0.15_PT117H.grib2 2026-04-13 16:47 229K
20260413T12Z_MSC_GDPS_RelativeHumidity_IsbL-0020_LatLon0.15_PT117H.grib2 2026-04-13 16:47 364K
20260413T12Z_MSC_GDPS_RelativeHumidity_IsbL-0030_LatLon0.15_PT117H.grib2 2026-04-13 16:47 376K
20260413T12Z_MSC_GDPS_RelativeHumidity_IsbL-0050_LatLon0.15_PT117H.grib2 2026-04-13 16:47 403K
20260413T12Z_MSC_GDPS_RelativeHumidity_IsbL-0100_LatLon0.15_PT117H.grib2 2026-04-13 16:47 478K
20260413T12Z_MSC_GDPS_RelativeHumidity_IsbL-0150_LatLon0.15_PT117H.grib2 2026-04-13 16:47 642K
20260413T12Z_MSC_GDPS_RelativeHumidity_IsbL-0175_LatLon0.15_PT117H.grib2 2026-04-13 16:47 779K
20260413T12Z_MSC_GDPS_RelativeHumidity_IsbL-0200_LatLon0.15_PT117H.grib2 2026-04-13 16:47 691K
20260413T12Z_MSC_GDPS_RelativeHumidity_IsbL-0225_LatLon0.15_PT117H.grib2 2026-04-13 16:47 783K
20260413T12Z_MSC_GDPS_RelativeHumidity_IsbL-0250_LatLon0.15_PT117H.grib2 2026-04-13 16:47 876K
20260413T12Z_MSC_GDPS_RelativeHumidity_IsbL-0275_LatLon0.15_PT117H.grib2 2026-04-13 16:47 900K
20260413T12Z_MSC_GDPS_RelativeHumidity_IsbL-0300_LatLon0.15_PT117H.grib2 2026-04-13 16:47 940K
20260413T12Z_MSC_GDPS_RelativeHumidity_IsbL-0350_LatLon0.15_PT117H.grib2 2026-04-13 16:47 959K
20260413T12Z_MSC_GDPS_RelativeHumidity_IsbL-0400_LatLon0.15_PT117H.grib2 2026-04-13 16:47 1.0M
20260413T12Z_MSC_GDPS_RelativeHumidity_IsbL-0450_LatLon0.15_PT117H.grib2 2026-04-13 16:47 1.0M
20260413T12Z_MSC_GDPS_RelativeHumidity_IsbL-0500_LatLon0.15_PT117H.grib2 2026-04-13 16:47 1.0M
20260413T12Z_MSC_GDPS_RelativeHumidity_IsbL-0550_LatLon0.15_PT117H.grib2 2026-04-13 16:47 1.1M
20260413T12Z_MSC_GDPS_RelativeHumidity_IsbL-0600_LatLon0.15_PT117H.grib2 2026-04-13 16:47 1.0M
20260413T12Z_MSC_GDPS_RelativeHumidity_IsbL-0650_LatLon0.15_PT117H.grib2 2026-04-13 16:47 1.1M
20260413T12Z_MSC_GDPS_RelativeHumidity_IsbL-0700_LatLon0.15_PT117H.grib2 2026-04-13 16:47 1.1M
20260413T12Z_MSC_GDPS_RelativeHumidity_IsbL-0750_LatLon0.15_PT117H.grib2 2026-04-13 16:47 1.2M
20260413T12Z_MSC_GDPS_RelativeHumidity_IsbL-0800_LatLon0.15_PT117H.grib2 2026-04-13 16:47 1.3M
20260413T12Z_MSC_GDPS_RelativeHumidity_IsbL-0850_LatLon0.15_PT117H.grib2 2026-04-13 16:47 1.3M
20260413T12Z_MSC_GDPS_RelativeHumidity_IsbL-0875_LatLon0.15_PT117H.grib2 2026-04-13 16:47 1.3M
20260413T12Z_MSC_GDPS_RelativeHumidity_IsbL-0900_LatLon0.15_PT117H.grib2 2026-04-13 16:47 1.2M
20260413T12Z_MSC_GDPS_RelativeHumidity_IsbL-0925_LatLon0.15_PT117H.grib2 2026-04-13 16:47 1.2M
20260413T12Z_MSC_GDPS_RelativeHumidity_IsbL-0950_LatLon0.15_PT117H.grib2 2026-04-13 16:47 1.2M
20260413T12Z_MSC_GDPS_RelativeHumidity_IsbL-0970_LatLon0.15_PT117H.grib2 2026-04-13 16:47 1.2M
20260413T12Z_MSC_GDPS_RelativeHumidity_IsbL-0985_LatLon0.15_PT117H.grib2 2026-04-13 16:47 1.1M
20260413T12Z_MSC_GDPS_RelativeHumidity_IsbL-1000_LatLon0.15_PT117H.grib2 2026-04-13 16:47 1.1M
20260413T12Z_MSC_GDPS_RelativeHumidity_IsbL-1015_LatLon0.15_PT117H.grib2 2026-04-13 16:47 1.0M
20260413T12Z_MSC_GDPS_RelativeVorticity_IsbL-0200_LatLon0.15_PT117H.grib2 2026-04-13 16:47 1.5M
20260413T12Z_MSC_GDPS_RelativeVorticity_IsbL-0250_LatLon0.15_PT117H.grib2 2026-04-13 16:47 1.6M
20260413T12Z_MSC_GDPS_RelativeVorticity_IsbL-0500_LatLon0.15_PT117H.grib2 2026-04-13 16:47 1.4M
20260413T12Z_MSC_GDPS_RelativeVorticity_IsbL-0700_LatLon0.15_PT117H.grib2 2026-04-13 16:47 1.6M
20260413T12Z_MSC_GDPS_RelativeVorticity_IsbL-0850_LatLon0.15_PT117H.grib2 2026-04-13 16:47 1.6M
20260413T12Z_MSC_GDPS_Runoff-Accum_Sfc_LatLon0.15_PT117H.grib2 2026-04-13 16:47 114K
20260413T12Z_MSC_GDPS_SensibleHeatNetFlux_Sfc_LatLon0.15_PT117H.grib2 2026-04-13 16:47 485K
20260413T12Z_MSC_GDPS_ShowalterIndex_IsbL-0500_LatLon0.15_PT117H.grib2 2026-04-13 16:47 6.2M
20260413T12Z_MSC_GDPS_Snow-Accum1h_Sfc_LatLon0.15_PT117H.grib2 2026-04-13 16:47 1.2M
20260413T12Z_MSC_GDPS_Snow-Accum3h_Sfc_LatLon0.15_PT117H.grib2 2026-04-13 16:47 1.1M
20260413T12Z_MSC_GDPS_Snow-Accum_Sfc_LatLon0.15_PT117H.grib2 2026-04-13 16:47 1.9M
20260413T12Z_MSC_GDPS_SnowDensity_Sfc_LatLon0.15_PT117H.grib2 2026-04-13 16:47 268K
20260413T12Z_MSC_GDPS_SnowDepth_Sfc_LatLon0.15_PT117H.grib2 2026-04-13 16:47 1.8M
20260413T12Z_MSC_GDPS_SoilTemp_DBS-0to10cm_LatLon0.15_PT117H.grib2 2026-04-13 16:47 507K
20260413T12Z_MSC_GDPS_SoilTemp_Sfc_LatLon0.15_PT117H.grib2 2026-04-13 16:47 580K
20260413T12Z_MSC_GDPS_SoilVolumetricIceContent_Sfc_LatLon0.15_PT117H.grib2 2026-04-13 16:47 224K
20260413T12Z_MSC_GDPS_SoilVolumetricWaterContent_DBS-0to10cm_LatLon0.15_PT117H.grib2 2026-04-13 16:47 552K
20260413T12Z_MSC_GDPS_SoilVolumetricWaterContent_DBS-0to1cm_LatLon0.15_PT117H.grib2 2026-04-13 16:47 651K
20260413T12Z_MSC_GDPS_SpecificHumidity_AGL-120m_LatLon0.15_PT117H.grib2 2026-04-13 16:47 1.1M
20260413T12Z_MSC_GDPS_SpecificHumidity_AGL-2m_LatLon0.15_PT117H.grib2 2026-04-13 16:47 1.2M
20260413T12Z_MSC_GDPS_SpecificHumidity_AGL-40m_LatLon0.15_PT117H.grib2 2026-04-13 16:47 1.1M
20260413T12Z_MSC_GDPS_SpecificHumidity_AGL-80m_LatLon0.15_PT117H.grib2 2026-04-13 16:47 1.1M
20260413T12Z_MSC_GDPS_SpecificHumidity_IsbL-0001_LatLon0.15_PT117H.grib2 2026-04-13 16:47 1.1M
20260413T12Z_MSC_GDPS_SpecificHumidity_IsbL-0005_LatLon0.15_PT117H.grib2 2026-04-13 16:47 1.1M
20260413T12Z_MSC_GDPS_SpecificHumidity_IsbL-0010_LatLon0.15_PT117H.grib2 2026-04-13 16:47 1.2M
20260413T12Z_MSC_GDPS_SpecificHumidity_IsbL-0020_LatLon0.15_PT117H.grib2 2026-04-13 16:47 1.3M
20260413T12Z_MSC_GDPS_SpecificHumidity_IsbL-0030_LatLon0.15_PT117H.grib2 2026-04-13 16:47 1.6M
20260413T12Z_MSC_GDPS_SpecificHumidity_IsbL-0050_LatLon0.15_PT117H.grib2 2026-04-13 16:47 1.3M
20260413T12Z_MSC_GDPS_SpecificHumidity_IsbL-0100_LatLon0.15_PT117H.grib2 2026-04-13 16:47 1.3M
20260413T12Z_MSC_GDPS_SpecificHumidity_IsbL-0150_LatLon0.15_PT117H.grib2 2026-04-13 16:47 1.3M
20260413T12Z_MSC_GDPS_SpecificHumidity_IsbL-0175_LatLon0.15_PT117H.grib2 2026-04-13 16:47 1.3M
20260413T12Z_MSC_GDPS_SpecificHumidity_IsbL-0200_LatLon0.15_PT117H.grib2 2026-04-13 16:47 1.3M
20260413T12Z_MSC_GDPS_SpecificHumidity_IsbL-0225_LatLon0.15_PT117H.grib2 2026-04-13 16:47 1.3M
20260413T12Z_MSC_GDPS_SpecificHumidity_IsbL-0250_LatLon0.15_PT117H.grib2 2026-04-13 16:47 1.2M
20260413T12Z_MSC_GDPS_SpecificHumidity_IsbL-0275_LatLon0.15_PT117H.grib2 2026-04-13 16:47 1.4M
20260413T12Z_MSC_GDPS_SpecificHumidity_IsbL-0300_LatLon0.15_PT117H.grib2 2026-04-13 16:47 1.2M
20260413T12Z_MSC_GDPS_SpecificHumidity_IsbL-0350_LatLon0.15_PT117H.grib2 2026-04-13 16:47 1.2M
20260413T12Z_MSC_GDPS_SpecificHumidity_IsbL-0400_LatLon0.15_PT117H.grib2 2026-04-13 16:47 1.4M
20260413T12Z_MSC_GDPS_SpecificHumidity_IsbL-0450_LatLon0.15_PT117H.grib2 2026-04-13 16:47 1.3M
20260413T12Z_MSC_GDPS_SpecificHumidity_IsbL-0500_LatLon0.15_PT117H.grib2 2026-04-13 16:47 1.4M
20260413T12Z_MSC_GDPS_SpecificHumidity_IsbL-0550_LatLon0.15_PT117H.grib2 2026-04-13 16:47 1.6M
20260413T12Z_MSC_GDPS_SpecificHumidity_IsbL-0600_LatLon0.15_PT117H.grib2 2026-04-13 16:47 1.4M
20260413T12Z_MSC_GDPS_SpecificHumidity_IsbL-0650_LatLon0.15_PT117H.grib2 2026-04-13 16:47 1.5M
20260413T12Z_MSC_GDPS_SpecificHumidity_IsbL-0700_LatLon0.15_PT117H.grib2 2026-04-13 16:47 1.6M
20260413T12Z_MSC_GDPS_SpecificHumidity_IsbL-0750_LatLon0.15_PT117H.grib2 2026-04-13 16:47 1.7M
20260413T12Z_MSC_GDPS_SpecificHumidity_IsbL-0800_LatLon0.15_PT117H.grib2 2026-04-13 16:47 1.9M
20260413T12Z_MSC_GDPS_SpecificHumidity_IsbL-0850_LatLon0.15_PT117H.grib2 2026-04-13 16:47 1.9M
20260413T12Z_MSC_GDPS_SpecificHumidity_IsbL-0875_LatLon0.15_PT117H.grib2 2026-04-13 16:47 1.9M
20260413T12Z_MSC_GDPS_SpecificHumidity_IsbL-0900_LatLon0.15_PT117H.grib2 2026-04-13 16:47 1.9M
20260413T12Z_MSC_GDPS_SpecificHumidity_IsbL-0925_LatLon0.15_PT117H.grib2 2026-04-13 16:47 1.6M
20260413T12Z_MSC_GDPS_SpecificHumidity_IsbL-0950_LatLon0.15_PT117H.grib2 2026-04-13 16:47 1.5M
20260413T12Z_MSC_GDPS_SpecificHumidity_IsbL-0970_LatLon0.15_PT117H.grib2 2026-04-13 16:47 1.5M
20260413T12Z_MSC_GDPS_SpecificHumidity_IsbL-0985_LatLon0.15_PT117H.grib2 2026-04-13 16:47 1.5M
20260413T12Z_MSC_GDPS_SpecificHumidity_IsbL-1000_LatLon0.15_PT117H.grib2 2026-04-13 16:47 1.5M
20260413T12Z_MSC_GDPS_SpecificHumidity_IsbL-1015_LatLon0.15_PT117H.grib2 2026-04-13 16:47 1.4M
20260413T12Z_MSC_GDPS_SpecificHumidity_Sfc_LatLon0.15_PT117H.grib2 2026-04-13 16:47 672K
20260413T12Z_MSC_GDPS_Thickness_IsbL-0850to0700_LatLon0.15_PT117H.grib2 2026-04-13 16:47 469K
20260413T12Z_MSC_GDPS_Thickness_IsbL-1000to0500_LatLon0.15_PT117H.grib2 2026-04-13 16:47 379K
20260413T12Z_MSC_GDPS_Thickness_IsbL-1000to0850_LatLon0.15_PT117H.grib2 2026-04-13 16:47 493K
20260413T12Z_MSC_GDPS_TotalCloudCover_Sfc_LatLon0.15_PT117H.grib2 2026-04-13 16:47 816K
20260413T12Z_MSC_GDPS_TotalTotalsIndex_Sfc_LatLon0.15_PT117H.grib2 2026-04-13 16:47 6.2M
20260413T12Z_MSC_GDPS_UVIndex-ClearSky_Sfc_LatLon0.15_PT117H.grib2 2026-04-13 17:07 1.0M
20260413T12Z_MSC_GDPS_UVIndex_Sfc_LatLon0.15_PT117H.grib2 2026-04-13 17:07 1.4M
20260413T12Z_MSC_GDPS_UpwardLongwaveRadiationFlux_NTAtm_LatLon0.15_PT117H.grib2 2026-04-13 16:47 835K
20260413T12Z_MSC_GDPS_VerticalVelocity_IsbL-0200_LatLon0.15_PT117H.grib2 2026-04-13 16:47 1.2M
20260413T12Z_MSC_GDPS_VerticalVelocity_IsbL-0250_LatLon0.15_PT117H.grib2 2026-04-13 16:47 1.0M
20260413T12Z_MSC_GDPS_VerticalVelocity_IsbL-0500_LatLon0.15_PT117H.grib2 2026-04-13 16:47 1.3M
20260413T12Z_MSC_GDPS_VerticalVelocity_IsbL-0600_LatLon0.15_PT117H.grib2 2026-04-13 16:47 1.0M
20260413T12Z_MSC_GDPS_VerticalVelocity_IsbL-0700_LatLon0.15_PT117H.grib2 2026-04-13 16:47 1.4M
20260413T12Z_MSC_GDPS_VerticalVelocity_IsbL-0850_LatLon0.15_PT117H.grib2 2026-04-13 16:47 1.6M
20260413T12Z_MSC_GDPS_WindChill_Sfc_LatLon0.15_PT117H.grib2 2026-04-13 16:47 5.3M
20260413T12Z_MSC_GDPS_WindDir_AGL-10m_LatLon0.15_PT117H.grib2 2026-04-13 16:47 1.3M
20260413T12Z_MSC_GDPS_WindDir_AGL-120m_LatLon0.15_PT117H.grib2 2026-04-13 16:47 1.4M
20260413T12Z_MSC_GDPS_WindDir_AGL-40m_LatLon0.15_PT117H.grib2 2026-04-13 16:47 1.4M
20260413T12Z_MSC_GDPS_WindDir_AGL-80m_LatLon0.15_PT117H.grib2 2026-04-13 16:47 1.4M
20260413T12Z_MSC_GDPS_WindDir_IsbL-0001_LatLon0.15_PT117H.grib2 2026-04-13 16:47 634K
20260413T12Z_MSC_GDPS_WindDir_IsbL-0005_LatLon0.15_PT117H.grib2 2026-04-13 16:47 776K
20260413T12Z_MSC_GDPS_WindDir_IsbL-0010_LatLon0.15_PT117H.grib2 2026-04-13 16:47 825K
20260413T12Z_MSC_GDPS_WindDir_IsbL-0020_LatLon0.15_PT117H.grib2 2026-04-13 16:47 899K
20260413T12Z_MSC_GDPS_WindDir_IsbL-0030_LatLon0.15_PT117H.grib2 2026-04-13 16:47 862K
20260413T12Z_MSC_GDPS_WindDir_IsbL-0050_LatLon0.15_PT117H.grib2 2026-04-13 16:47 936K
20260413T12Z_MSC_GDPS_WindDir_IsbL-0100_LatLon0.15_PT117H.grib2 2026-04-13 16:47 1.0M
20260413T12Z_MSC_GDPS_WindDir_IsbL-0150_LatLon0.15_PT117H.grib2 2026-04-13 16:47 1.0M
20260413T12Z_MSC_GDPS_WindDir_IsbL-0175_LatLon0.15_PT117H.grib2 2026-04-13 16:47 1.0M
20260413T12Z_MSC_GDPS_WindDir_IsbL-0200_LatLon0.15_PT117H.grib2 2026-04-13 16:47 1.1M
20260413T12Z_MSC_GDPS_WindDir_IsbL-0225_LatLon0.15_PT117H.grib2 2026-04-13 16:47 1.1M
20260413T12Z_MSC_GDPS_WindDir_IsbL-0250_LatLon0.15_PT117H.grib2 2026-04-13 16:47 1.1M
20260413T12Z_MSC_GDPS_WindDir_IsbL-0275_LatLon0.15_PT117H.grib2 2026-04-13 16:47 1.2M
20260413T12Z_MSC_GDPS_WindDir_IsbL-0300_LatLon0.15_PT117H.grib2 2026-04-13 16:47 1.2M
20260413T12Z_MSC_GDPS_WindDir_IsbL-0350_LatLon0.15_PT117H.grib2 2026-04-13 16:47 1.2M
20260413T12Z_MSC_GDPS_WindDir_IsbL-0400_LatLon0.15_PT117H.grib2 2026-04-13 16:47 1.3M
20260413T12Z_MSC_GDPS_WindDir_IsbL-0450_LatLon0.15_PT117H.grib2 2026-04-13 16:47 1.3M
20260413T12Z_MSC_GDPS_WindDir_IsbL-0500_LatLon0.15_PT117H.grib2 2026-04-13 16:47 1.3M
20260413T12Z_MSC_GDPS_WindDir_IsbL-0550_LatLon0.15_PT117H.grib2 2026-04-13 16:47 1.4M
20260413T12Z_MSC_GDPS_WindDir_IsbL-0600_LatLon0.15_PT117H.grib2 2026-04-13 16:47 1.4M
20260413T12Z_MSC_GDPS_WindDir_IsbL-0650_LatLon0.15_PT117H.grib2 2026-04-13 16:47 1.5M
20260413T12Z_MSC_GDPS_WindDir_IsbL-0700_LatLon0.15_PT117H.grib2 2026-04-13 16:47 1.6M
20260413T12Z_MSC_GDPS_WindDir_IsbL-0750_LatLon0.15_PT117H.grib2 2026-04-13 16:47 1.7M
20260413T12Z_MSC_GDPS_WindDir_IsbL-0800_LatLon0.15_PT117H.grib2 2026-04-13 16:47 1.8M
20260413T12Z_MSC_GDPS_WindDir_IsbL-0850_LatLon0.15_PT117H.grib2 2026-04-13 16:47 2.0M
20260413T12Z_MSC_GDPS_WindDir_IsbL-0875_LatLon0.15_PT117H.grib2 2026-04-13 16:47 2.0M
20260413T12Z_MSC_GDPS_WindDir_IsbL-0900_LatLon0.15_PT117H.grib2 2026-04-13 16:47 2.0M
20260413T12Z_MSC_GDPS_WindDir_IsbL-0925_LatLon0.15_PT117H.grib2 2026-04-13 16:47 2.0M
20260413T12Z_MSC_GDPS_WindDir_IsbL-0950_LatLon0.15_PT117H.grib2 2026-04-13 16:47 2.0M
20260413T12Z_MSC_GDPS_WindDir_IsbL-0970_LatLon0.15_PT117H.grib2 2026-04-13 16:47 2.0M
20260413T12Z_MSC_GDPS_WindDir_IsbL-0985_LatLon0.15_PT117H.grib2 2026-04-13 16:47 2.0M
20260413T12Z_MSC_GDPS_WindDir_IsbL-1000_LatLon0.15_PT117H.grib2 2026-04-13 16:47 2.1M
20260413T12Z_MSC_GDPS_WindDir_IsbL-1015_LatLon0.15_PT117H.grib2 2026-04-13 16:47 2.0M
20260413T12Z_MSC_GDPS_WindGust-Max_AGL-10m_LatLon0.15_PT117H.grib2 2026-04-13 16:47 2.3M
20260413T12Z_MSC_GDPS_WindGust-Min_AGL-10m_LatLon0.15_PT117H.grib2 2026-04-13 16:47 2.2M
20260413T12Z_MSC_GDPS_WindGust_AGL-10m_LatLon0.15_PT117H.grib2 2026-04-13 16:47 2.2M
20260413T12Z_MSC_GDPS_WindSpeed_AGL-10m_LatLon0.15_PT117H.grib2 2026-04-13 16:47 1.1M
20260413T12Z_MSC_GDPS_WindSpeed_AGL-120m_LatLon0.15_PT117H.grib2 2026-04-13 16:47 1.2M
20260413T12Z_MSC_GDPS_WindSpeed_AGL-40m_LatLon0.15_PT117H.grib2 2026-04-13 16:47 1.2M
20260413T12Z_MSC_GDPS_WindSpeed_AGL-80m_LatLon0.15_PT117H.grib2 2026-04-13 16:47 1.2M
20260413T12Z_MSC_GDPS_WindSpeed_IsbL-0001_LatLon0.15_PT117H.grib2 2026-04-13 16:47 629K
20260413T12Z_MSC_GDPS_WindSpeed_IsbL-0005_LatLon0.15_PT117H.grib2 2026-04-13 16:47 682K
20260413T12Z_MSC_GDPS_WindSpeed_IsbL-0010_LatLon0.15_PT117H.grib2 2026-04-13 16:47 618K
20260413T12Z_MSC_GDPS_WindSpeed_IsbL-0020_LatLon0.15_PT117H.grib2 2026-04-13 16:47 851K
20260413T12Z_MSC_GDPS_WindSpeed_IsbL-0030_LatLon0.15_PT117H.grib2 2026-04-13 16:47 848K
20260413T12Z_MSC_GDPS_WindSpeed_IsbL-0050_LatLon0.15_PT117H.grib2 2026-04-13 16:47 1.0M
20260413T12Z_MSC_GDPS_WindSpeed_IsbL-0100_LatLon0.15_PT117H.grib2 2026-04-13 16:47 1.1M
20260413T12Z_MSC_GDPS_WindSpeed_IsbL-0150_LatLon0.15_PT117H.grib2 2026-04-13 16:47 1.0M
20260413T12Z_MSC_GDPS_WindSpeed_IsbL-0175_LatLon0.15_PT117H.grib2 2026-04-13 16:47 1.0M
20260413T12Z_MSC_GDPS_WindSpeed_IsbL-0200_LatLon0.15_PT117H.grib2 2026-04-13 16:47 1.0M
20260413T12Z_MSC_GDPS_WindSpeed_IsbL-0225_LatLon0.15_PT117H.grib2 2026-04-13 16:47 1.1M
20260413T12Z_MSC_GDPS_WindSpeed_IsbL-0250_LatLon0.15_PT117H.grib2 2026-04-13 16:47 1.1M
20260413T12Z_MSC_GDPS_WindSpeed_IsbL-0275_LatLon0.15_PT117H.grib2 2026-04-13 16:47 1.1M
20260413T12Z_MSC_GDPS_WindSpeed_IsbL-0300_LatLon0.15_PT117H.grib2 2026-04-13 16:47 1.1M
20260413T12Z_MSC_GDPS_WindSpeed_IsbL-0350_LatLon0.15_PT117H.grib2 2026-04-13 16:47 1.1M
20260413T12Z_MSC_GDPS_WindSpeed_IsbL-0400_LatLon0.15_PT117H.grib2 2026-04-13 16:47 1.1M
20260413T12Z_MSC_GDPS_WindSpeed_IsbL-0450_LatLon0.15_PT117H.grib2 2026-04-13 16:47 1.1M
20260413T12Z_MSC_GDPS_WindSpeed_IsbL-0500_LatLon0.15_PT117H.grib2 2026-04-13 16:47 1.1M
20260413T12Z_MSC_GDPS_WindSpeed_IsbL-0550_LatLon0.15_PT117H.grib2 2026-04-13 16:47 1.1M
20260413T12Z_MSC_GDPS_WindSpeed_IsbL-0600_LatLon0.15_PT117H.grib2 2026-04-13 16:47 1.4M
20260413T12Z_MSC_GDPS_WindSpeed_IsbL-0650_LatLon0.15_PT117H.grib2 2026-04-13 16:47 1.4M
20260413T12Z_MSC_GDPS_WindSpeed_IsbL-0700_LatLon0.15_PT117H.grib2 2026-04-13 16:47 1.6M
20260413T12Z_MSC_GDPS_WindSpeed_IsbL-0750_LatLon0.15_PT117H.grib2 2026-04-13 16:47 1.6M
20260413T12Z_MSC_GDPS_WindSpeed_IsbL-0800_LatLon0.15_PT117H.grib2 2026-04-13 16:47 1.6M
20260413T12Z_MSC_GDPS_WindSpeed_IsbL-0850_LatLon0.15_PT117H.grib2 2026-04-13 16:47 1.8M
20260413T12Z_MSC_GDPS_WindSpeed_IsbL-0875_LatLon0.15_PT117H.grib2 2026-04-13 16:47 1.9M
20260413T12Z_MSC_GDPS_WindSpeed_IsbL-0900_LatLon0.15_PT117H.grib2 2026-04-13 16:47 1.9M
20260413T12Z_MSC_GDPS_WindSpeed_IsbL-0925_LatLon0.15_PT117H.grib2 2026-04-13 16:47 1.9M
20260413T12Z_MSC_GDPS_WindSpeed_IsbL-0950_LatLon0.15_PT117H.grib2 2026-04-13 16:47 1.9M
20260413T12Z_MSC_GDPS_WindSpeed_IsbL-0970_LatLon0.15_PT117H.grib2 2026-04-13 16:47 1.9M
20260413T12Z_MSC_GDPS_WindSpeed_IsbL-0985_LatLon0.15_PT117H.grib2 2026-04-13 16:47 1.8M
20260413T12Z_MSC_GDPS_WindSpeed_IsbL-1000_LatLon0.15_PT117H.grib2 2026-04-13 16:47 1.8M
20260413T12Z_MSC_GDPS_WindSpeed_IsbL-1015_LatLon0.15_PT117H.grib2 2026-04-13 16:47 1.8M
20260413T12Z_MSC_GDPS_WindU_AGL-10m_LatLon0.15_PT117H.grib2 2026-04-13 16:47 1.3M
20260413T12Z_MSC_GDPS_WindU_AGL-120m_LatLon0.15_PT117H.grib2 2026-04-13 16:47 962K
20260413T12Z_MSC_GDPS_WindU_AGL-40m_LatLon0.15_PT117H.grib2 2026-04-13 16:47 962K
20260413T12Z_MSC_GDPS_WindU_AGL-80m_LatLon0.15_PT117H.grib2 2026-04-13 16:47 964K
20260413T12Z_MSC_GDPS_WindU_IsbL-0001_LatLon0.15_PT117H.grib2 2026-04-13 16:47 495K
20260413T12Z_MSC_GDPS_WindU_IsbL-0005_LatLon0.15_PT117H.grib2 2026-04-13 16:47 682K
20260413T12Z_MSC_GDPS_WindU_IsbL-0010_LatLon0.15_PT117H.grib2 2026-04-13 16:47 695K
20260413T12Z_MSC_GDPS_WindU_IsbL-0020_LatLon0.15_PT117H.grib2 2026-04-13 16:47 732K
20260413T12Z_MSC_GDPS_WindU_IsbL-0030_LatLon0.15_PT117H.grib2 2026-04-13 16:47 729K
20260413T12Z_MSC_GDPS_WindU_IsbL-0050_LatLon0.15_PT117H.grib2 2026-04-13 16:47 696K
20260413T12Z_MSC_GDPS_WindU_IsbL-0100_LatLon0.15_PT117H.grib2 2026-04-13 16:47 920K
20260413T12Z_MSC_GDPS_WindU_IsbL-0150_LatLon0.15_PT117H.grib2 2026-04-13 16:47 1.0M
20260413T12Z_MSC_GDPS_WindU_IsbL-0175_LatLon0.15_PT117H.grib2 2026-04-13 16:47 1.0M
20260413T12Z_MSC_GDPS_WindU_IsbL-0200_LatLon0.15_PT117H.grib2 2026-04-13 16:47 1.0M
20260413T12Z_MSC_GDPS_WindU_IsbL-0225_LatLon0.15_PT117H.grib2 2026-04-13 16:47 852K
20260413T12Z_MSC_GDPS_WindU_IsbL-0250_LatLon0.15_PT117H.grib2 2026-04-13 16:47 853K
20260413T12Z_MSC_GDPS_WindU_IsbL-0275_LatLon0.15_PT117H.grib2 2026-04-13 16:47 879K
20260413T12Z_MSC_GDPS_WindU_IsbL-0300_LatLon0.15_PT117H.grib2 2026-04-13 16:47 870K
20260413T12Z_MSC_GDPS_WindU_IsbL-0350_LatLon0.15_PT117H.grib2 2026-04-13 16:47 1.1M
20260413T12Z_MSC_GDPS_WindU_IsbL-0400_LatLon0.15_PT117H.grib2 2026-04-13 16:47 1.1M
20260413T12Z_MSC_GDPS_WindU_IsbL-0450_LatLon0.15_PT117H.grib2 2026-04-13 16:47 1.1M
20260413T12Z_MSC_GDPS_WindU_IsbL-0500_LatLon0.15_PT117H.grib2 2026-04-13 16:47 1.1M
20260413T12Z_MSC_GDPS_WindU_IsbL-0550_LatLon0.15_PT117H.grib2 2026-04-13 16:47 1.1M
20260413T12Z_MSC_GDPS_WindU_IsbL-0600_LatLon0.15_PT117H.grib2 2026-04-13 16:47 1.1M
20260413T12Z_MSC_GDPS_WindU_IsbL-0650_LatLon0.15_PT117H.grib2 2026-04-13 16:47 1.2M
20260413T12Z_MSC_GDPS_WindU_IsbL-0700_LatLon0.15_PT117H.grib2 2026-04-13 16:47 1.2M
20260413T12Z_MSC_GDPS_WindU_IsbL-0750_LatLon0.15_PT117H.grib2 2026-04-13 16:47 1.3M
20260413T12Z_MSC_GDPS_WindU_IsbL-0800_LatLon0.15_PT117H.grib2 2026-04-13 16:47 1.3M
20260413T12Z_MSC_GDPS_WindU_IsbL-0850_LatLon0.15_PT117H.grib2 2026-04-13 16:47 1.4M
20260413T12Z_MSC_GDPS_WindU_IsbL-0875_LatLon0.15_PT117H.grib2 2026-04-13 16:47 1.4M
20260413T12Z_MSC_GDPS_WindU_IsbL-0900_LatLon0.15_PT117H.grib2 2026-04-13 16:47 1.5M
20260413T12Z_MSC_GDPS_WindU_IsbL-0925_LatLon0.15_PT117H.grib2 2026-04-13 16:47 1.4M
20260413T12Z_MSC_GDPS_WindU_IsbL-0950_LatLon0.15_PT117H.grib2 2026-04-13 16:47 1.4M
20260413T12Z_MSC_GDPS_WindU_IsbL-0970_LatLon0.15_PT117H.grib2 2026-04-13 16:47 1.4M
20260413T12Z_MSC_GDPS_WindU_IsbL-0985_LatLon0.15_PT117H.grib2 2026-04-13 16:47 1.4M
20260413T12Z_MSC_GDPS_WindU_IsbL-1000_LatLon0.15_PT117H.grib2 2026-04-13 16:47 1.4M
20260413T12Z_MSC_GDPS_WindU_IsbL-1015_LatLon0.15_PT117H.grib2 2026-04-13 16:47 1.3M
20260413T12Z_MSC_GDPS_WindV_AGL-10m_LatLon0.15_PT117H.grib2 2026-04-13 16:47 1.6M
20260413T12Z_MSC_GDPS_WindV_AGL-120m_LatLon0.15_PT117H.grib2 2026-04-13 16:47 968K
20260413T12Z_MSC_GDPS_WindV_AGL-40m_LatLon0.15_PT117H.grib2 2026-04-13 16:47 966K
20260413T12Z_MSC_GDPS_WindV_AGL-80m_LatLon0.15_PT117H.grib2 2026-04-13 16:47 970K
20260413T12Z_MSC_GDPS_WindV_IsbL-0001_LatLon0.15_PT117H.grib2 2026-04-13 16:47 694K
20260413T12Z_MSC_GDPS_WindV_IsbL-0005_LatLon0.15_PT117H.grib2 2026-04-13 16:47 841K
20260413T12Z_MSC_GDPS_WindV_IsbL-0010_LatLon0.15_PT117H.grib2 2026-04-13 16:47 794K
20260413T12Z_MSC_GDPS_WindV_IsbL-0020_LatLon0.15_PT117H.grib2 2026-04-13 16:47 848K
20260413T12Z_MSC_GDPS_WindV_IsbL-0030_LatLon0.15_PT117H.grib2 2026-04-13 16:47 843K
20260413T12Z_MSC_GDPS_WindV_IsbL-0050_LatLon0.15_PT117H.grib2 2026-04-13 16:47 695K
20260413T12Z_MSC_GDPS_WindV_IsbL-0100_LatLon0.15_PT117H.grib2 2026-04-13 16:47 845K
20260413T12Z_MSC_GDPS_WindV_IsbL-0150_LatLon0.15_PT117H.grib2 2026-04-13 16:47 1.0M
20260413T12Z_MSC_GDPS_WindV_IsbL-0175_LatLon0.15_PT117H.grib2 2026-04-13 16:47 1.0M
20260413T12Z_MSC_GDPS_WindV_IsbL-0200_LatLon0.15_PT117H.grib2 2026-04-13 16:47 838K
20260413T12Z_MSC_GDPS_WindV_IsbL-0225_LatLon0.15_PT117H.grib2 2026-04-13 16:47 848K
20260413T12Z_MSC_GDPS_WindV_IsbL-0250_LatLon0.15_PT117H.grib2 2026-04-13 16:47 909K
20260413T12Z_MSC_GDPS_WindV_IsbL-0275_LatLon0.15_PT117H.grib2 2026-04-13 16:47 933K
20260413T12Z_MSC_GDPS_WindV_IsbL-0300_LatLon0.15_PT117H.grib2 2026-04-13 16:47 922K
20260413T12Z_MSC_GDPS_WindV_IsbL-0350_LatLon0.15_PT117H.grib2 2026-04-13 16:47 934K
20260413T12Z_MSC_GDPS_WindV_IsbL-0400_LatLon0.15_PT117H.grib2 2026-04-13 16:47 873K
20260413T12Z_MSC_GDPS_WindV_IsbL-0450_LatLon0.15_PT117H.grib2 2026-04-13 16:47 871K
20260413T12Z_MSC_GDPS_WindV_IsbL-0500_LatLon0.15_PT117H.grib2 2026-04-13 16:47 875K
20260413T12Z_MSC_GDPS_WindV_IsbL-0550_LatLon0.15_PT117H.grib2 2026-04-13 16:47 1.1M
20260413T12Z_MSC_GDPS_WindV_IsbL-0600_LatLon0.15_PT117H.grib2 2026-04-13 16:47 1.1M
20260413T12Z_MSC_GDPS_WindV_IsbL-0650_LatLon0.15_PT117H.grib2 2026-04-13 16:47 1.2M
20260413T12Z_MSC_GDPS_WindV_IsbL-0700_LatLon0.15_PT117H.grib2 2026-04-13 16:47 1.2M
20260413T12Z_MSC_GDPS_WindV_IsbL-0750_LatLon0.15_PT117H.grib2 2026-04-13 16:47 1.3M
20260413T12Z_MSC_GDPS_WindV_IsbL-0800_LatLon0.15_PT117H.grib2 2026-04-13 16:47 1.3M
20260413T12Z_MSC_GDPS_WindV_IsbL-0850_LatLon0.15_PT117H.grib2 2026-04-13 16:47 1.4M
20260413T12Z_MSC_GDPS_WindV_IsbL-0875_LatLon0.15_PT117H.grib2 2026-04-13 16:47 1.4M
20260413T12Z_MSC_GDPS_WindV_IsbL-0900_LatLon0.15_PT117H.grib2 2026-04-13 16:47 1.4M
20260413T12Z_MSC_GDPS_WindV_IsbL-0925_LatLon0.15_PT117H.grib2 2026-04-13 16:47 1.4M
20260413T12Z_MSC_GDPS_WindV_IsbL-0950_LatLon0.15_PT117H.grib2 2026-04-13 16:47 1.4M
20260413T12Z_MSC_GDPS_WindV_IsbL-0970_LatLon0.15_PT117H.grib2 2026-04-13 16:47 1.4M
20260413T12Z_MSC_GDPS_WindV_IsbL-0985_LatLon0.15_PT117H.grib2 2026-04-13 16:47 1.4M
20260413T12Z_MSC_GDPS_WindV_IsbL-1000_LatLon0.15_PT117H.grib2 2026-04-13 16:47 1.7M
20260413T12Z_MSC_GDPS_WindV_IsbL-1015_LatLon0.15_PT117H.grib2 2026-04-13 16:47 1.6M